STARLINK-31872, 59922

Orbit data source: Space-Track

STARLINK-31872, 59922 is a payload satellite owned by SpaceX/Seattle (US) in LEO that was launched on Sat, 01 Jun 2024 UTC via an FALCON 9 launch vehicle from the Air Force Eastern Test Range (AFETR). Payload-class satellites include a variety of spacecraft equipped with specific instruments for various scientific and technological missions. These include communications satellites like Starlink; space stations such as the ISS; scientific satellites like the Hubble; Earth observation satellites from companies like Planet Labs, Umbra, and HawkEye 360; GPS; miniature CubeSats for education and research; and military/defense satellites.

Loading next visibility...
Identifier
59922, 2024-106A
Orbit
LEO
Country
Flag of USUS
Related business
Manufacturer
SpaceX/Seattle
Mission
Operational Commercial Communications
Bus & Motor
STARLINK V2M, Unknown motor
Mass
730 kg wet, ~700 kg dry
Launch date (UTC)
2024-06-01 (2 years ago)
Launch vehicle
FALCON 9
Launch site
Air Force Eastern Test Range (AFETR)
Object type
Payload
Rocket body
Debris
Shape & HBR
Box + 2 Pan, 17.7 m
Radar Cross Section
33.884 m², Large (>1 m²)

Expand to show TLE details & history
Last TLE update: 19 hours ago

TLE from 19 hours ago
0 STARLINK-31872
1 59922U 24106A   26035.37368049 -.00001407  00000-0 -41648-4 0  9997
2 59922  42.9972 161.0081 0000831 255.5971 104.4788 15.27571468 95467
Epoch: 2026-02-04T08:58Z
TLE epoch observation values (Epoch: 2026-02-04T08:58:05.994Z)
Latitude
-0.00004°
Longitude
-108.0581°
Altitude
482.992 km
Speed
7.626 km/s
True Right ascension
10h 44m 01s
True Declination
0° 00' 00"
Sunlit
Object was in full shadow at epoch
Visualization orbit readout
Latitude
Unknown
Longitude
Unknown
Altitude
Unknown
Speed
Unknown
Apparent Right ascension
Unknown
Apparent Declination
Unknown
Sunlit
N/A
Visualization observer readout
Local Sidereal Time
06:14:15
Azimuth
Unknown
Elevation
Unknown
Doppler factor
Unknown
Orbital elements
Apogee altitude
485.591 km
Perigee altitude
484.45 km
Semi-major axis
6,863.157 km
Eccentricity
0.00008
Inclination
42.9972°
RAAN
161.0081°
Arg. of periapsis
255.5971°
True anomaly
104.48802°
Mean anomaly
104.4788°
Eccentric anomaly
104.48341°
Mean motion
3.81731 °/min
Orbital period
94.31 mins
BSTAR
-0.000041648
Loading maneuver chart data...
Computing Atmospheric mass density...
Loading historical data...
Loading historical data...
Loading historical data...
Loading historical data...
Loading historical data...
Loading historical data...
Loading historical data...

Documentation

Showing up to 5 results
|